Location: Prescott
(34.5400°N, 112.4680°W)
Time: 21:33:18
(UTC-07:00)

OTV 5 (USA 277) - Visible Passes

Search period start: 20 April 2019 00:00
Search period end: 30 April 2019 00:00
Orbit: 310 x 326 km, 54.5° (Epoch: 20 April)

Date Brightness Start Highest point End Pass type
(mag) Time Alt. Az. Time Alt. Az. Time Alt. Az.
20 Apr ? 04:27:21 10° NNE 04:28:20 11° NE 04:29:19 10° ENE visible
21 Apr ? 04:40:54 10° NNW 04:43:16 28° NE 04:45:38 10° ESE visible
22 Apr ? 04:55:23 10° NW 04:58:02 74° SW 05:00:40 10° SE visible
22 Apr ? 19:39:34 10° SSE 19:41:21 16° SE 19:43:07 10° E visible
22 Apr ? 21:13:19 10° W 21:14:40 19° WNW 21:14:40 19° WNW visible
23 Apr ? 03:38:58 16° ENE 03:38:58 16° ENE 03:40:18 10° E visible
23 Apr ? 05:10:39 10° WNW 05:12:38 19° SW 05:14:38 10° S visible
23 Apr ? 19:53:15 10° SSW 19:55:55 56° SE 19:58:36 10° NE visible
24 Apr ? 20:08:06 10° WSW 20:10:39 36° NW 20:13:13 10° NNE visible
25 Apr ? 20:23:59 10° WNW 20:25:33 14° NW 20:27:06 10° N visible
